Weather History for KPDT - November, 2013

Change the Weather History Date:

Thursday, November 7, 2013

  Actual Average Record
Temperature  
Mean Temperature 43 °F 44 °F  
Max Temperature 48 °F 53 °F 71 °F (1978)
Min Temperature 38 °F 36 °F 15 °F (2003)
Degree Days  
Heating Degree Days 22 21  
Month to date heating degree days 142 138  
Since 1 July heating degree days 739 680  
Cooling Degree Days 0 0  
Month to date cooling degree days 0 0  
Year to date cooling degree days 831 636  
Moisture  
Dew Point 39 °F    
Average Humidity 77    
Maximum Humidity 100    
Minimum Humidity 54    
Precipitation  
Precipitation 0.25 in 0.05 in 1.07 in (1997)
Month to date precipitation 0.54 0.34  
Year to date precipitation 8.35 10.01  
Snow  
Snow 0.00 in 0.00 in 1.80 in (1945)
Month to date snowfall 0.0 0.1  
Year to date snowfall 0.2 7.9  
Since 1 July snowfall T 0.2  
Snow Depth 0.00 in    
Sea Level Pressure  
Sea Level Pressure 29.96 in    
Wind  
Wind Speed 9 mph (West)    
Max Wind Speed 29 mph    
Max Gust Speed 34 mph    
Visibility 3 miles    
Events Fog , Rain    
T = Trace of Precipitation, MM = Missing Value Source: NWS Daily Summary

Daily Weather History Graph

Daily Weather History Graph

Search for Another Location

Airport or City:

Trip Planner

Search our weather history database for the weather conditions in past years. The results will help you decide how hot, cold, wet, or windy it might be!

Date:

Astronomy

Nov. 07, 2013 Rise Set
Actual Time 6:44 AM PST 4:33 PM PST
Civil Twilight 6:12 AM PST 5:04 PM PST
Nautical Twilight 5:37 AM PST 5:40 PM PST
Astronomical Twilight 5:02 AM PST 6:15 PM PST
Moon 10:59 AM PST (11/7) 8:48 PM PST (11/7)
Length of Visible Light 10h 52m
Length of Day
9h 49m
Waxing Crescent, 24% of the Moon is Illuminated
Nov 7
Waxing Crescent
Nov 9
First Quarter
Nov 17
Full
Nov 25
Last Quarter
Dec 2
New

Hourly Weather History & Observations

Time (PST) Temp. Windchill Dew Point Humidity Pressure Visibility Wind Dir Wind Speed Gust Speed Precip Events Conditions
12:11 AM 39.9 °F 34.5 °F 39.0 °F 97% 30.18 in 2.5 mi WNW 8.1 mph - 0.01 in Rain Light Rain
12:22 AM 39.9 °F 33.9 °F 39.0 °F 97% 30.17 in 2.0 mi WNW 9.2 mph - 0.02 in Rain Light Rain
12:43 AM 39.9 °F - 39.0 °F 97% 30.15 in 2.5 mi Calm Calm - 0.02 in Rain Light Rain
12:53 AM 39.9 °F - 39.0 °F 97% 30.15 in 3.0 mi Calm Calm - 0.03 in Rain Light Rain
1:06 AM 39.9 °F 37.8 °F 39.0 °F 97% 30.14 in 3.0 mi NW 3.5 mph - 0.00 in Rain Light Rain
1:26 AM 39.9 °F 35.8 °F 39.0 °F 97% 30.13 in 2.0 mi NW 5.8 mph - 0.00 in   Overcast
1:31 AM 39.9 °F 35.8 °F 39.0 °F 97% 30.13 in 1.2 mi NW 5.8 mph - 0.00 in   Overcast
1:53 AM 39.9 °F 35.8 °F 39.0 °F 97% 30.12 in 0.8 mi NW 5.8 mph - 0.00 in   Overcast
2:10 AM 39.9 °F 35.1 °F 39.0 °F 97% 30.11 in 1.0 mi NW 6.9 mph - N/A   Overcast
2:31 AM 39.9 °F 36.7 °F 39.0 °F 97% 30.09 in 1.5 mi NW 4.6 mph - 0.00 in Rain Light Rain
2:53 AM 39.9 °F 37.8 °F 39.0 °F 97% 30.08 in 1.8 mi WNW 3.5 mph - 0.00 in   Overcast
3:03 AM 39.9 °F 37.8 °F 39.0 °F 97% 30.07 in 2.0 mi NW 3.5 mph - 0.00 in Rain Light Rain
3:18 AM 39.9 °F 35.8 °F 39.0 °F 97% 30.06 in 1.2 mi NW 5.8 mph - 0.00 in Rain Light Rain
3:39 AM 39.9 °F 35.1 °F 39.0 °F 97% 30.06 in 1.5 mi West 6.9 mph - 0.00 in Rain Light Rain
3:51 AM 39.2 °F 34.2 °F 39.2 °F 100% 30.05 in 1.2 mi WNW 6.9 mph - 0.00 in   Overcast
3:53 AM 39.0 °F 34.8 °F 39.0 °F 100% 30.05 in 1.2 mi WNW 5.8 mph - 0.00 in   Overcast
4:16 AM 39.0 °F 36.8 °F 39.0 °F 100% 30.03 in 0.8 mi NNW 3.5 mph - 0.00 in Rain Light Rain
4:50 AM 39.2 °F 35.0 °F 39.2 °F 100% 30.02 in 0.2 mi WNW 5.8 mph - 0.00 in Fog Fog
4:53 AM 39.0 °F 33.4 °F 39.0 °F 100% 30.02 in 0.2 mi WNW 8.1 mph - 0.00 in Fog Fog
5:53 AM 39.0 °F 31.4 °F 37.9 °F 96% 30.00 in 0.2 mi WNW 12.7 mph - N/A Fog Fog
6:53 AM 39.0 °F 32.8 °F 37.9 °F 96% 29.98 in 0.2 mi WNW 9.2 mph - N/A Fog Fog
7:53 AM 37.9 °F 35.5 °F 37.9 °F 100% 29.97 in 0.2 mi NW 3.5 mph - N/A Fog Fog
8:53 AM 39.0 °F 36.8 °F 39.0 °F 100% 29.94 in 0.2 mi NW 3.5 mph - N/A Fog Fog
9:37 AM 39.0 °F 36.8 °F 39.0 °F 100% 29.90 in 0.8 mi ESE 3.5 mph - N/A   Overcast
9:46 AM 39.0 °F 34.8 °F 39.0 °F 100% 29.89 in 1.0 mi ESE 5.8 mph - N/A   Overcast
9:53 AM 39.9 °F 37.8 °F 39.0 °F 97% 29.89 in 1.0 mi ESE 3.5 mph - N/A   Overcast
10:03 AM 39.9 °F 36.7 °F 39.0 °F 97% 29.88 in 1.8 mi ESE 4.6 mph - N/A   Overcast
10:24 AM 39.9 °F 33.4 °F 39.0 °F 97% 29.86 in 1.2 mi SE 10.4 mph - 0.00 in Rain Light Rain
10:31 AM 39.9 °F 33.9 °F 39.0 °F 97% 29.86 in 1.5 mi SE 9.2 mph - 0.01 in Rain Light Rain
10:34 AM 39.9 °F 33.9 °F 39.0 °F 97% 29.86 in 1.2 mi SE 9.2 mph - 0.01 in Rain Light Rain
10:42 AM 39.9 °F 37.8 °F 39.9 °F 100% 29.85 in 1.5 mi East 3.5 mph - 0.01 in Rain Light Rain
10:50 AM 39.2 °F - 39.2 °F 100% 29.88 in 1.2 mi Calm Calm - 0.02 in Rain Light Rain
10:53 AM 39.9 °F - 39.9 °F 100% 29.89 in 1.2 mi North - - 0.02 in Rain Light Rain
11:05 AM 39.9 °F 34.5 °F 39.9 °F 100% 29.86 in 1.5 mi NNW 8.1 mph - 0.02 in Rain Light Rain
11:15 AM 41.0 °F 34.7 °F 39.9 °F 96% 29.85 in 3.0 mi NNW 10.4 mph - 0.02 in Rain Light Rain
11:27 AM 41.0 °F 35.2 °F 41.0 °F 100% 29.84 in 4.0 mi North 9.2 mph - 0.02 in   Overcast
11:53 AM 44.1 °F - 43.0 °F 96% 29.83 in 8.0 mi North - - 0.02 in   Overcast
12:08 PM 44.1 °F 41.5 °F 42.1 °F 93% 29.83 in 4.0 mi West 4.6 mph - 0.00 in Rain Light Rain
12:42 PM 43.0 °F 41.3 °F 43.0 °F 100% 29.83 in 2.0 mi South 3.5 mph - 0.05 in Rain Light Rain
12:53 PM 44.1 °F 41.5 °F 43.0 °F 96% 29.83 in 3.0 mi Variable 4.6 mph - 0.05 in Rain Light Rain
1:05 PM 44.1 °F 34.2 °F 42.1 °F 93% 29.87 in 1.8 mi WNW 28.8 mph 32.2 mph 0.01 in Rain Rain
1:08 PM 42.1 °F 32.3 °F 39.9 °F 92% 29.86 in 1.0 mi WNW 24.2 mph 33.4 mph 0.02 in Rain Heavy Rain
1:16 PM 41.0 °F 31.1 °F 39.9 °F 96% 29.87 in 0.8 mi WNW 23.0 mph 31.1 mph 0.05 in Rain Rain
1:24 PM 41.0 °F 31.9 °F 39.9 °F 96% 29.87 in 0.8 mi West 19.6 mph - 0.06 in Rain Rain
1:31 PM 41.0 °F 33.1 °F 39.9 °F 96% 29.87 in 1.8 mi West 15.0 mph - 0.08 in Rain Rain
1:34 PM 41.0 °F 33.1 °F 39.9 °F 96% 29.87 in 3.0 mi West 15.0 mph - 0.08 in Rain Light Rain
1:53 PM 42.1 °F 34.9 °F 41.0 °F 96% 29.88 in 3.0 mi WSW 13.8 mph - 0.10 in Rain Light Rain
2:00 PM 42.1 °F 34.9 °F 41.0 °F 96% 29.88 in 4.0 mi WSW 13.8 mph - 0.01 in Rain Light Rain
2:53 PM 45.0 °F 41.2 °F 43.0 °F 93% 29.89 in 10.0 mi SW 6.9 mph - 0.03 in   Overcast
3:53 PM 46.9 °F - 42.1 °F 83% 29.89 in 10.0 mi SSE 5.8 mph - N/A   Clear
4:53 PM 46.9 °F - 39.0 °F 74% 29.90 in 10.0 mi South 9.2 mph - N/A   Clear
5:53 PM 46.9 °F - 37.0 °F 68% 29.93 in 10.0 mi SW 12.7 mph - N/A   Mostly Cloudy
6:53 PM 46.9 °F - 34.0 °F 61% 29.93 in 10.0 mi SW 20.7 mph - N/A   Partly Cloudy
7:53 PM 45.0 °F 38.9 °F 33.1 °F 63% 29.94 in 10.0 mi SW 12.7 mph - N/A   Clear
8:53 PM 46.0 °F 40.6 °F 32.0 °F 58% 29.96 in 10.0 mi SW 11.5 mph - N/A   Clear
9:53 PM 48.0 °F - 32.0 °F 54% 29.97 in 10.0 mi SW 17.3 mph 24.2 mph N/A   Mostly Cloudy
10:53 PM 48.0 °F - 33.1 °F 56% 29.99 in 10.0 mi SW 13.8 mph 23.0 mph N/A   Partly Cloudy
11:53 PM 46.9 °F - 33.1 °F 59% 30.00 in 10.0 mi SW 11.5 mph - N/A   Partly Cloudy